Lapse_Rate
2.0 1.5 1.6 1.8 1.8 1.8 1.9 1.6 1.3 1.4 1.5 1.1 1.0 1.5 2.4 2.6 3.0 3.6 3.8 4.0 4.4 4.5 4.1 4.0 3.9 3.8 4.6 3.0 4.8 5.1 4.7 4.7 5.9 6.4 5.2 5.2 5.8 5.8 6.5 6.0 5.9 6.4 6.4 5.5 4.6 3.6 4.5
2.2 1.7 1.4 1.5 1.8 1.7 1.8 1.7 1.4 1.3 1.4 1.2 1.0 1.4 2.2 2.8 3.1 3.4 3.6 4.1 4.4 4.4 4.4 4.5 4.4 4.4 5.2 5.7 5.2 4.8 3.9 5.1 4.6 5.8 4.8 4.2 5.1 4.3 5.0 5.9 6.2 6.0 5.9 6.1 6.0 5.7 5.2
2.4 2.0 1.6 1.2 1.5 1.7 1.6 1.5 1.4 1.4 1.4 1.3 1.0 1.1 1.9 2.5 3.1 3.5 3.8 4.0 4.5 4.7 4.6 4.4 4.6 4.0 2.5 4.9 5.2 4.8 4.2 5.0 4.0 5.5 5.5 4.6 4.6 4.5 5.0 6.2 5.9 5.9 6.5 6.4 6.4 6.3 6.3
2.5 2.2 1.9 1.6 1.4 1.5 1.5 1.3 1.2 1.3 1.3 1.3 1.1 1.0 1.6 2.4 3.0 3.5 3.8 3.8 4.2 4.5 4.4 4.7 4.6 3.4 4.2 5.9 5.9 4.2 3.7 5.3 4.2 5.1 5.5 5.1 4.1 3.4 4.6 4.9 5.9 6.5 6.5 6.5 6.5 6.3 6.1
2.4 2.5 2.2 1.8 1.6 1.6 1.6 1.4 1.2 1.1 1.1 1.1 1.0 0.7 1.4 2.3 2.9 3.3 3.4 3.8 4.3 4.4 4.7 5.1 4.9 4.5 5.4 5.8 4.9 3.8 3.4 4.4 3.8 5.3 5.1 5.4 3.9 5.1 5.7 6.5 6.5 6.5 6.5 6.5 6.5 5.9 6.4
2.9 2.4 2.3 2.1 1.7 1.8 1.7 1.4 1.3 1.2 1.1 0.9 0.8 0.6 0.9 1.7 2.5 3.0 3.4 3.7 4.7 4.5 4.4 5.6 4.4 5.3 4.5 5.1 5.2 4.3 3.4 3.8 5.1 5.4 5.2 3.5 2.7 6.5 6.5 6.5 6.5 6.5 6.5 6.5 6.5 6.5 6.5
3.8 3.0 2.2 2.1 1.9 1.8 1.7 1.4 1.4 1.3 1.1 0.9 0.8 1.0 0.9 1.4 2.2 2.9 2.5 2.1 3.4 4.0 2.3 4.8 5.4 5.6 5.7 5.1 5.4 4.4 2.9 4.0 5.3 3.4 6.5 5.0 6.5 6.5 6.5 6.5 6.5 6.5 6.5 6.5 6.5 6.5 6.5
4.1 3.6 2.8 2.1 2.1 1.9 1.8 1.7 1.4 1.2 1.1 1.1 1.2 1.4 1.3 1.7 2.4 2.7 1.5 1.9 3.5 4.4 5.0 5.9 6.0 5.9 6.0 4.9 5.6 4.7 3.0 5.3 5.8 6.5 6.4 6.5 6.5 6.5 6.5 6.5 6.5 6.5 6.5 6.5 6.5 6.5 6.5
3.9 4.0 3.4 2.6 2.3 2.1 1.9 1.9 1.7 1.5 1.2 1.2 1.3 1.5 1.6 2.0 2.5 1.6 1.5 2.4 2.8 4.0 4.7 6.0 5.9 5.6 5.4 5.2 4.8 4.3 3.5 5.2 6.1 6.5 6.5 6.5 6.5 6.5 6.5 6.5 6.5 6.5 6.5 6.5 6.5 6.5 6.5
4.2 4.0 3.6 3.5 2.7 2.8 2.3 1.9 1.9 1.6 1.4 1.4 1.6 1.8 1.9 2.1 2.4 0.9 1.6 1.9 3.0 3.5 6.5 6.5 6.1 6.2 6.1 5.5 5.8 5.6 4.6 5.3 5.8 6.5 6.5 6.5 6.5 6.5 6.5 6.5 6.5 6.5 6.5 6.5 6.5 6.5 6.5
4.5 4.2 3.8 3.5 3.2 3.0 2.9 2.3 2.1 1.8 1.6 1.6 1.6 1.9 2.0 3.0 0.5 0.8 1.8 1.9 2.7 3.6 6.5 6.5 6.3 6.7 6.2 5.7 5.9 5.8 5.4 5.4 6.5 6.5 6.5 6.5 6.5 6.5 6.5 6.5 6.5 6.5 6.5 6.5 6.5 6.5 6.5
4.9 4.2 4.1 3.5 3.6 3.5 3.5 3.0 2.6 2.2 1.9 1.9 1.9 2.3 2.3 1.1 -0.3 0.2 0.9 2.1 2.9 6.5 6.5 6.5 6.3 6.4 6.5 6.0 6.1 5.4 5.5 4.8 5.5 6.5 6.5 6.5 6.3 6.4 6.5 6.5 6.5 6.5 6.5 6.5 6.5 6.5 6.5
4.8 4.9 4.0 3.6 3.1 3.2 4.1 3.5 3.1 2.3 2.0 2.0 1.7 1.6 1.4 0.7 0.9 0.0 0.9 2.5 6.5 6.5 6.5 6.5 6.5 6.5 6.5 6.5 6.5 6.4 6.5 6.5 6.5 6.5 6.5 6.5 6.5 6.5 6.4 6.5 6.5 6.5 6.5 6.5 6.5 6.5 6.5
5.1 4.2 4.1 3.9 3.6 3.4 4.0 3.6 3.3 2.7 2.3 2.2 1.9 1.9 -0.0 -0.7 -0.5 0.0 1.0 6.1 6.5 6.5 6.5 6.5 6.5 6.5 6.5 6.5 6.5 6.5 6.5 6.5 6.5 6.5 6.5 6.5 6.5 6.5 6.5 6.5 6.5 6.5 6.5 6.5 6.5 6.5 6.5
5.1 4.5 4.5 4.1 3.7 3.5 3.7 3.2 3.2 3.0 2.5 2.4 2.5 -0.4 -0.4 -0.6 -0.1 0.2 3.2 6.5 6.5 6.5 6.5 6.5 6.5 6.5 6.5 6.5 6.5 6.5 6.5 6.5 6.5 6.5 6.5 6.5 6.5 6.5 6.5 6.5 6.5 6.5 6.5 6.5 6.5 6.5 6.5
4.6 4.5 4.5 4.4 3.9 3.7 3.5 3.6 3.5 3.5 3.0 3.1 1.1 1.3 0.5 0.1 0.0 1.1 5.6 6.5 6.5 6.4 6.3 6.5 6.5 6.5 6.5 6.5 6.5 6.5 6.5 6.5 6.5 6.4 6.3 6.5 6.5 6.5 6.5 6.4 6.5 6.5 6.5 6.5 6.5 6.5 6.5
4.2 4.7 4.7 4.3 4.0 3.6 3.3 3.1 2.8 3.3 3.1 3.7 2.2 4.2 2.0 1.0 0.6 2.0 6.5 6.5 6.5 5.9 6.1 6.5 6.5 6.5 6.5 6.5 6.5 6.5 6.5 6.5 6.5 6.5 6.4 6.5 6.5 6.5 6.5 6.5 6.5 6.5 6.5 6.5 6.5 6.5 6.5
3.9 4.0 4.5 4.5 4.0 3.6 3.1 2.6 2.7 3.3 3.0 3.0 2.9 6.3 1.7 1.2 4.5 5.3 6.5 6.5 6.4 6.4 6.0 6.4 6.4 6.5 6.5 6.5 6.5 6.5 6.5 6.5 6.0 6.3 6.5 6.5 6.5 6.5 6.5 6.5 6.5 6.5 6.5 6.5 6.5 6.5 6.5
3.6 3.5 3.7 3.7 3.9 3.6 3.0 2.5 2.7 2.8 3.7 1.4 2.7 3.7 3.3 3.4 6.5 6.5 6.5 6.5 6.4 6.5 6.5 6.5 6.5 6.5 6.5 6.5 6.5 6.5 6.5 6.0 5.7 6.5 6.5 6.4 6.5 6.5 6.5 6.5 6.5 6.5 6.5 6.5 6.5 6.5 6.5
3.5 3.4 3.1 3.4 3.2 3.5 3.0 2.7 2.6 3.3 2.9 1.1 1.9 6.5 4.7 4.0 4.7 6.4 6.5 6.5 6.5 5.8 6.4 6.2 6.4 6.3 6.5 6.5 6.5 6.5 6.5 6.4 5.6 6.2 7.2 5.7 6.5 6.5 6.5 6.5 6.5 6.5 6.5 6.5 6.5 6.5 6.5
3.0 2.6 2.2 2.3 2.6 3.2 4.0 3.1 3.2 3.6 3.4 2.5 3.2 5.9 5.0 6.5 6.3 6.0 6.3 6.5 6.5 6.5 6.3 6.2 6.5 6.5 6.5 6.5 6.5 6.5 6.5 6.5 6.3 6.5 5.8 6.4 6.5 6.5 6.5 6.5 6.5 6.5 6.5 6.5 6.5 6.5 6.5
2.7 2.8 2.6 3.2 3.3 3.3 3.8 3.0 4.3 3.8 3.4 3.0 3.5 4.3 4.2 4.4 5.5 6.3 6.5 6.5 6.5 6.5 6.5 6.5 6.5 6.5 6.5 6.5 6.5 6.5 6.5 6.5 6.5 6.3 6.5 6.0 6.5 6.5 6.5 6.5 6.5 6.5 6.5 6.5 6.5 6.5 6.5
2.5 2.6 2.8 3.2 3.6 4.1 4.0 4.6 4.6 3.9 4.4 3.2 1.2 1.2 3.1 6.6 6.4 6.5 6.5 6.5 6.5 6.2 6.0 5.8 4.7 6.4 6.5 6.4 3.7 2.9 1.7 2.0 4.3 6.4 6.5 6.5 6.5 6.5 6.5 6.5 6.5 6.5 6.5 6.5 6.5 6.5 6.5
2.5 2.8 3.0 3.5 4.1 4.7 4.6 4.2 4.0 3.9 3.3 1.5 0.2 1.9 3.4 6.5 6.5 6.5 6.4 6.2 6.5 6.4 6.5 5.4 5.7 6.0 4.7 2.6 2.8 2.5 1.3 2.1 2.4 3.4 5.7 6.5 6.5 6.5 6.5 6.5 6.5 6.5 6.5 6.5 6.5 6.5 6.5
2.9 2.8 3.1 4.7 5.6 4.7 4.5 4.2 4.0 3.9 2.7 1.9 0.5 1.4 2.0 6.5 6.2 6.4 6.0 6.1 5.3 5.3 5.5 6.4 4.9 3.1 3.8 5.1 6.5 6.5 6.5 6.5 6.5 6.5 6.5 5.8 6.5 6.5 6.5 6.5 6.5 6.5 6.5 6.5 6.5 6.5 6.5
3.1 2.8 3.1 4.6 5.8 4.4 4.6 5.0 4.9 4.4 3.9 1.8 1.6 1.7 2.1 4.5 6.4 4.1 5.0 5.4 6.5 6.5 6.5 6.1 4.1 4.1 4.7 6.6 6.5 6.5 6.5 6.5 6.5 6.5 6.4 6.5 6.5 6.5 6.5 6.5 6.5 6.5 6.5 0.6 2.4 6.5 5.0
3.5 3.2 3.3 4.2 5.2 5.1 4.4 4.7 5.0 5.5 4.1 2.6 1.0 1.0 2.9 3.3 1.9 1.6 4.8 5.3 2.2 4.2 6.5 5.0 5.4 5.5 4.1 6.5 6.5 6.5 6.5 6.5 6.5 6.5 6.5 6.5 6.5 6.5 6.5 6.5 6.5 6.5 3.8 0.5 6.5 6.5 4.3
4.0 3.4 3.3 3.8 4.7 5.4 5.0 4.4 4.3 4.4 3.3 2.8 -0.2 -0.5 3.0 1.7 -0.0 -2.9 -1.3 2.1 2.2 2.3 6.5 4.2 6.1 5.7 6.3 6.5 6.5 6.5 6.5 6.5 6.5 6.5 6.5 6.5 6.5 6.5 6.5 6.5 6.5 3.3 5.5 6.5 5.5 3.0 3.1
4.8 4.3 4.0 4.1 4.0 5.3 5.9 5.3 5.2 5.2 4.2 3.5 1.1 -1.7 -2.4 0.2 -1.0 -2.0 -2.3 -2.3 -1.8 -0.9 1.0 3.1 4.0 3.5 5.8 6.5 6.5 6.5 6.5 6.5 6.5 6.5 6.5 6.5 6.5 6.5 6.5 6.5 5.0 3.9 4.2 2.7 2.4 4.3 5.2
Wind_Speed
6 6 4 3 4 4 5 7 8 9 9 9 8 8 7 8 8 8 7 6 5 6 8 11 12 11 2 6 2 9 22 18 7 3 4 4 4 2 4 4 3 4 2 5 6 8 7
7 7 6 4 3 4 4 6 7 8 8 8 8 7 5 5 4 5 5 7 7 7 10 12 11 4 3 4 5 14 19 7 7 4 5 6 3 4 6 5 5 3 7 5 3 4 4
7 7 6 6 4 3 4 5 6 7 7 7 6 5 3 2 3 2 3 8 9 9 9 11 12 3 7 1 6 15 12 3 5 3 3 3 1 6 3 5 3 3 5 3 1 1 2
8 7 6 5 5 3 3 4 5 6 6 6 6 4 3 1 0 1 5 9 10 10 11 8 7 4 3 4 7 7 10 4 7 4 2 4 7 8 5 6 4 4 4 1 1 4 1
10 8 8 7 5 4 3 3 3 5 5 5 5 3 2 1 1 3 7 9 8 14 5 4 4 4 2 7 5 6 6 4 7 5 5 3 5 4 4 4 4 5 2 2 4 7 4
12 11 9 8 6 5 3 2 3 4 4 5 5 3 2 2 1 3 8 5 8 6 7 2 3 3 6 5 4 5 5 4 4 3 5 8 5 4 3 3 4 4 3 4 5 4 4
14 13 11 9 8 6 4 3 2 2 4 5 5 4 3 3 3 5 5 3 4 5 9 4 3 3 2 7 3 6 4 5 3 8 3 3 4 3 4 2 2 3 3 3 1 0 3
17 15 13 11 9 7 5 3 2 1 3 4 3 2 4 4 4 4 3 5 3 3 6 4 2 3 1 3 3 7 8 4 4 3 2 5 2 3 3 3 2 2 0 4 2 1 3
19 17 16 13 10 9 8 5 3 1 3 4 3 2 4 5 4 5 4 3 1 1 5 3 3 3 4 5 2 6 7 2 4 3 3 3 1 0 2 1 2 1 4 3 4 3 2
20 19 17 15 13 10 9 7 5 2 1 2 3 4 5 5 5 1 3 4 2 1 4 5 5 4 4 2 4 2 3 2 5 3 2 2 1 2 2 2 3 3 1 1 1 3 4
22 20 17 16 15 12 10 9 7 4 1 0 2 3 5 3 5 3 1 3 1 3 3 3 3 3 3 4 3 7 3 4 3 3 3 1 2 1 1 1 1 2 2 2 1 2 3
22 21 19 18 15 13 12 11 9 6 3 2 4 3 3 4 3 2 4 1 3 4 3 0 1 3 2 4 3 4 3 5 3 3 4 3 2 3 2 3 2 4 3 4 3 2 2
25 22 20 19 16 15 14 13 11 8 5 6 6 12 5 2 2 6 2 3 4 3 1 1 1 2 1 3 2 3 3 1 2 2 2 1 1 1 2 3 4 3 2 4 4 2 6
26 26 24 22 20 20 17 15 13 10 8 6 5 5 8 5 6 4 2 4 1 1 2 1 2 1 2 4 1 4 2 2 1 3 2 2 4 2 2 1 2 3 1 3 6 3 4
26 27 26 26 25 23 21 18 15 13 12 11 5 2 3 7 9 1 4 2 4 3 3 5 2 2 1 1 1 4 0 1 2 5 6 3 3 1 2 1 2 3 4 1 1 1 2
23 31 28 28 27 26 25 22 18 15 14 12 3 2 2 11 8 3 4 4 2 1 4 1 1 2 1 1 1 3 1 2 2 1 1 2 4 3 2 1 1 2 1 3 1 4 6
25 20 22 25 27 28 27 25 22 17 15 11 3 3 2 11 1 4 3 4 2 1 1 3 4 2 2 3 3 2 2 1 0 2 2 4 3 1 2 7 6 3 2 2 0 3 4
20 16 18 27 26 28 30 29 26 23 20 5 3 2 3 5 3 1 3 1 2 1 3 1 1 1 5 5 3 3 4 2 3 2 3 1 3 3 9 2 2 1 5 5 3 5 3
18 15 11 7 20 26 31 32 30 26 19 4 3 1 3 2 3 2 1 1 2 1 1 2 1 2 1 4 1 4 2 2 3 2 3 2 1 4 5 3 4 3 4 3 2 2 7
15 14 13 12 6 26 32 33 32 30 18 4 4 2 3 3 2 4 4 2 3 1 2 3 3 3 3 1 3 1 2 3 4 2 4 3 1 7 10 6 4 3 5 7 10 2 9
16 15 11 14 12 17 32 34 35 29 17 4 1 2 1 3 3 4 4 4 3 4 1 2 1 5 7 4 2 5 2 2 1 3 3 3 5 3 6 3 4 9 11 11 16 22 13
13 12 11 14 14 13 34 36 34 29 17 3 5 4 2 2 3 5 3 6 8 3 4 4 4 5 6 6 8 8 6 4 6 2 4 1 3 1 5 5 7 14 12 17 23 24 22
10 10 11 14 15 16 34 38 36 33 15 3 1 2 4 6 3 4 5 7 8 7 3 1 5 4 3 5 1 1 1 3 3 7 7 5 3 2 6 3 6 11 11 17 6 6 13
9 9 9 12 18 21 34 35 36 34 7 3 2 3 3 3 4 5 4 5 7 9 4 2 1 4 1 4 4 5 6 5 6 5 2 6 5 3 4 4 4 4 2 3 9 7 3
9 5 4 10 22 25 31 36 36 36 12 3 2 3 3 3 2 1 5 4 4 4 3 3 2 2 3 1 3 5 3 4 3 3 1 2 4 3 3 3 9 6 3 3 4 6 2
7 5 5 12 24 28 32 33 33 32 12 4 2 1 3 6 6 5 5 4 4 3 2 2 2 2 1 1 2 3 4 3 4 3 4 2 2 4 3 4 7 5 2 3 3 5 2
8 7 7 9 21 27 30 33 31 30 15 4 2 4 3 3 2 3 4 5 6 3 3 2 3 2 2 2 2 4 4 2 3 4 5 3 2 12 10 7 8 4 3 2 4 4 3
9 9 8 8 11 19 24 27 27 27 17 4 1 8 2 3 1 3 3 4 3 2 5 5 4 1 2 3 4 4 3 4 1 3 6 8 7 5 4 5 11 4 2 6 3 1 3
10 10 9 8 9 17 22 24 25 28 21 8 3 4 8 5 2 3 4 4 2 1 5 5 1 4 5 3 2 2 3 3 4 4 2 3 6 4 10 6 1 1 1 1 2 3 3
Wind_Direction
164 150 139 117 90 70 48 50 48 46 47 52 54 55 59 69 82 89 81 68 25 360 354 350 341 345 13 46 4 316 334 338 355 25 47 17 41 59 86 86 73 81 107 47 70 74 70
173 161 153 135 107 85 63 49 49 50 47 48 48 49 49 69 81 102 66 24 5 349 352 348 347 341 62 72 312 328 337 344 18 21 26 37 52 77 89 54 43 59 85 104 53 85 91
182 173 165 150 136 108 84 64 49 46 46 45 45 46 42 68 79 110 357 354 346 346 341 347 351 65 54 160 331 336 350 349 351 12 36 26 159 74 108 85 140 92 70 48 17 119 104
189 181 178 171 156 137 104 77 60 49 44 41 34 30 31 50 161 279 330 332 330 329 330 336 353 58 89 299 326 4 344 335 359 22 42 24 74 93 73 142 60 63 65 98 148 139 104
186 189 187 183 174 162 136 97 61 50 41 35 25 24 26 49 15 315 319 322 324 328 319 339 47 74 26 334 24 325 28 344 309 347 26 64 64 77 45 83 44 30 221 220 308 200 144
193 188 188 192 187 181 159 113 67 39 32 31 22 46 40 62 15 335 319 302 328 15 2 43 55 57 15 326 313 333 335 357 27 348 26 40 52 73 47 83 225 196 220 222 221 192 172
199 194 187 189 197 193 180 150 99 43 23 19 27 59 65 32 7 350 5 33 29 359 35 97 311 119 319 305 307 351 352 348 28 52 78 7 82 188 212 159 126 138 199 256 254 301 203
202 198 193 185 193 198 200 189 158 72 31 15 17 109 41 20 6 357 71 76 98 155 78 21 34 51 22 337 350 347 356 70 46 87 13 35 197 177 154 150 134 104 178 243 268 194 194
202 202 192 186 195 196 200 201 194 111 45 39 45 47 347 346 360 48 74 88 8 115 83 12 42 33 329 28 52 322 8 353 74 78 7 153 150 244 115 71 124 164 192 199 217 325 263
204 203 194 192 182 204 202 204 200 179 83 89 64 10 355 337 57 187 56 324 1 72 80 352 360 13 357 73 31 305 10 56 37 133 89 74 342 148 94 140 117 275 105 109 103 63 237
201 204 201 192 184 190 207 207 202 188 142 55 342 352 27 81 144 70 228 317 1 62 14 356 357 290 8 61 331 359 338 13 91 121 122 222 158 134 170 91 174 205 111 112 95 108 28
202 200 200 193 184 188 202 208 201 180 154 104 31 21 137 34 54 17 315 2 56 51 269 51 352 4 11 21 16 319 26 49 126 80 43 53 4 22 44 43 21 140 72 59 65 86 325
194 201 199 197 188 194 201 198 199 178 162 146 83 64 64 17 128 325 336 49 29 129 79 166 131 30 90 2 17 31 24 26 156 44 10 47 97 34 126 82 15 61 60 314 330 355 237
196 201 203 198 196 192 198 196 193 178 166 151 124 94 63 60 352 344 66 50 332 36 210 173 107 87 35 3 7 345 27 351 141 92 124 135 319 172 4 18 199 197 176 185 249 247 268
204 206 203 202 196 192 192 196 189 178 165 153 135 38 52 350 356 23 78 60 212 201 146 157 102 93 351 335 327 4 214 234 203 187 158 127 252 116 63 345 125 170 207 193 321 203 4
221 218 203 203 198 193 187 186 179 175 170 166 104 84 9 332 347 63 78 232 174 87 116 105 263 32 303 269 1 15 271 162 171 214 158 210 344 26 343 315 55 176 196 76 16 307 289
219 220 212 208 201 191 183 179 174 175 164 170 73 85 288 338 54 52 165 222 169 106 160 157 188 178 212 214 199 226 260 264 62 120 135 136 118 306 356 204 184 150 232 80 307 185 219
187 183 205 217 205 190 182 171 171 174 156 102 90 142 302 346 62 84 148 227 46 145 23 7 47 185 187 164 175 254 246 237 36 135 130 34 148 228 224 44 23 62 204 158 166 234 240
181 183 183 183 206 188 173 167 167 167 166 130 98 41 313 1 158 208 173 133 92 105 23 51 121 39 27 183 349 203 254 33 14 61 137 227 333 337 309 13 7 214 212 149 125 102 202
185 179 171 181 182 182 171 166 167 169 152 95 115 119 5 45 358 142 136 197 175 13 122 122 132 86 82 204 24 243 250 36 3 70 100 76 134 199 248 259 116 211 202 208 212 214 259
182 177 181 176 175 180 168 167 166 165 152 97 47 179 175 176 226 161 138 151 154 207 47 191 123 195 168 192 230 219 195 350 125 320 77 120 226 220 264 227 210 234 232 211 211 229 233
174 183 183 186 191 188 170 167 169 164 149 83 143 139 50 88 86 111 154 193 193 194 151 237 194 195 184 184 198 195 156 190 212 63 128 44 257 92 282 268 259 273 254 236 237 243 246
171 183 199 206 204 207 174 170 166 165 154 131 111 41 104 162 131 139 204 179 196 151 193 37 177 129 200 247 105 133 106 92 175 161 176 151 145 68 269 336 327 288 248 225 224 221 229
171 194 216 223 213 192 173 169 169 171 143 120 157 122 111 170 185 201 181 178 172 188 150 111 136 137 150 105 93 50 49 58 61 13 8 146 142 178 275 3 280 264 217 184 228 251 299
175 189 277 248 172 169 166 166 170 175 135 100 145 125 139 129 149 114 169 151 87 40 76 146 78 32 165 91 29 360 336 7 0 18 31 30 141 220 245 213 299 312 326 140 156 287 216
159 120 65 151 156 163 163 169 175 179 156 91 103 131 109 124 214 127 140 181 152 138 145 108 39 62 55 112 95 196 233 226 281 352 17 62 53 205 144 236 245 230 262 184 140 284 199
145 121 93 124 168 168 170 174 175 176 167 102 81 11 95 107 196 126 173 172 124 107 96 116 159 132 5 132 160 186 246 186 255 184 164 138 220 218 224 247 277 226 194 157 92 254 163
144 129 115 120 147 164 174 174 174 170 162 108 93 14 73 95 64 28 14 128 109 152 157 163 120 293 94 172 171 216 176 222 134 181 180 172 164 197 201 224 272 154 72 175 167 13 147
148 140 136 142 140 171 165 171 178 175 167 132 91 44 50 70 87 31 63 43 27 83 130 182 151 164 166 121 206 165 210 163 183 255 328 243 198 192 198 217 43 140 63 97 155 140 171